Regional Weather Roundup
Issued by NWS

Home | Current Version | Previous Version | Text Only | Print | Product List | Glossary Off
Versions: 1 2 3 4 5 6 7 8 9 10 11 12 13 14 15 16 17 18 19 20 21 22 23 24 25 26 27 28 29 30 31 32 33 34 35 36 37 38 39 40 41 42 43 44 45 46 47 48 49 50

000
ASUS43 KLMK 300402
RWRKY
KENTUCKY REGIONAL WEATHER ROUNDUP
NATIONAL WEATHER SERVICE LOUISVILLE KY
1200 AM EDT TUE SEP 30 2014

NOTE "FAIR" INDICATES FEW OR NO CLOUDS BELOW 12,000 FEET
WITH NO SIGNIFICANT WEATHER AND/OR OBSTRUCTIONS TO VISIBILITY.

KYZ001>023-026-027-061>063-070>075-300500-
WESTERN AND SOUTH CENTRAL KENTUCKY

CITY           SKY/WX    TMP DP  RH WIND       PRES   REMARKS
PADUCAH        CLEAR     60  57  89 CALM      29.95S
HENDERSON      NOT AVBL
OWENSBORO      CLEAR     61  57  86 CALM      29.96S
HOPKINSVILLE   CLEAR     64  57  77 CALM      29.96R
BOWLING GREEN  CLEAR     63  57  81 CALM      29.96S
GLASGOW        CLEAR     59  59 100 CALM      29.96S
$$

KYZ024-025-028>034-038-045-046-053-300500-
NORTH CENTRAL KENTUCKY

CITY           SKY/WX    TMP DP  RH WIND       PRES   REMARKS
LOUISVILLE/SDF CLEAR     67  57  70 CALM      29.95S
LOUISVILLE/LOU CLEAR     64  57  78 CALM      29.95S
FORT KNOX      CLEAR     57  55  93 W2        29.95S
$$

KYZ035>037-039>044-047>052-055>060-089>105-300500-
NORTHEAST KENTUCKY

CITY           SKY/WX    TMP DP  RH WIND       PRES   REMARKS
LEXINGTON      CLEAR     62  53  72 CALM      29.96S
COVINGTON      CLEAR     61  51  70 CALM      29.94F
FRANKFORT      CLEAR     58  53  84 N3        29.94F
$$

KYZ054-064>069-076>088-106>120-300500-
SOUTHEAST KENTUCKY

CITY           SKY/WX    TMP DP  RH WIND       PRES   REMARKS
JACKSON        CLEAR     65  62  90 CALM      29.97F
LONDON         CLEAR     63  60  90 CALM      29.98S
SOMERSET       CLEAR     61  61 100 CALM      29.98S FOG
MIDDLESBORO    CLEAR     60  59  97 CALM      30.00S
MONTICELLO     CLEAR     57  56  97 CALM      29.99S FOG
$$



USA.gov is the U.S. government's official web portal to all federal, state and local government web resources and services.